ASI232 EDDN-EYVI

Flight info

Callsign ASI232
Flight time N/A
Altitude 31000
Route ERETO1C ERETO Z715 ABKIS/N0382F300 L132 EKPEK/N0413F350 DCT GOVEN DCT GRUDA N858 BARGU DCT BOKSU DCT IRKAL
Aircraft A20N/M-SDE2E3FGHIRWXY/LB1

Departure

Time 2026-05-06 16:27
Airport Nuremberg Airport (EDDN)

Arrival

Time N/A
Airport Vilnius International Airport (EYVI)
Time Latitude Longitude Altitude Speed Heading
2026-05-06 16:21 49.49458 11.08307 1030 ft 0 kts 188°
2026-05-06 16:21 49.49487 11.08315 1031 ft 8 kts 200°
2026-05-06 16:22 49.49515 11.08380 1033 ft 1 kts 285°
2026-05-06 16:22 49.49534 11.08304 1031 ft 10 kts 278°
2026-05-06 16:22 49.49540 11.08225 1030 ft 0 kts 277°
2026-05-06 16:22 49.49542 11.08206 1030 ft 10 kts 277°
2026-05-06 16:23 49.49551 11.08099 1029 ft 10 kts 277°
2026-05-06 16:23 49.49559 11.07997 1027 ft 9 kts 277°
2026-05-06 16:23 49.49568 11.07895 1030 ft 10 kts 278°
2026-05-06 16:23 49.49583 11.07800 1029 ft 10 kts 279°
2026-05-06 16:24 49.49587 11.07762 1026 ft 3 kts 279°
2026-05-06 16:24 49.49596 11.07669 1029 ft 9 kts 277°
2026-05-06 16:24 49.49644 11.07602 1030 ft 10 kts 336°
2026-05-06 16:24 49.49713 11.07584 1031 ft 10 kts 354°
2026-05-06 16:25 49.49761 11.07577 1032 ft 0 kts 354°
2026-05-06 16:25 49.49794 11.07572 1031 ft 10 kts 354°
2026-05-06 16:25 49.49859 11.07585 1030 ft 10 kts 40°
2026-05-06 16:25 49.49877 11.07661 1031 ft 1 kts 94°
2026-05-06 16:27 49.49871 11.07780 1033 ft 45 kts 95°
2026-05-06 16:27 49.49778 11.08746 1031 ft 132 kts 99°
2026-05-06 16:27 49.49615 11.10439 1275 ft 179 kts 96°
2026-05-06 16:27 49.49427 11.12379 2205 ft 180 kts 99°
2026-05-06 16:28 49.49305 11.13654 2793 ft 181 kts 98°
2026-05-06 16:28 49.49122 11.15565 3771 ft 177 kts 98°
2026-05-06 16:28 49.49125 11.17438 4635 ft 179 kts 80°
2026-05-06 16:28 49.49553 11.19268 5405 ft 186 kts 60°
2026-05-06 16:29 49.50330 11.20876 6194 ft 190 kts 47°
2026-05-06 16:29 49.51294 11.22279 6965 ft 193 kts 40°
2026-05-06 16:29 49.52349 11.23592 7698 ft 199 kts 38°
2026-05-06 16:29 49.53453 11.24899 8452 ft 203 kts 37°
2026-05-06 16:30 49.54583 11.26233 9207 ft 207 kts 37°
2026-05-06 16:30 49.55358 11.27156 9712 ft 210 kts 38°
2026-05-06 16:30 49.56912 11.29027 10553 ft 218 kts 38°
2026-05-06 16:30 49.58111 11.30479 11278 ft 220 kts 38°
2026-05-06 16:31 49.59407 11.31778 11969 ft 223 kts 21°
2026-05-06 16:31 49.60897 11.32363 12666 ft 220 kts 358°
2026-05-06 16:31 49.62392 11.32139 13393 ft 213 kts 336°
2026-05-06 16:31 49.63826 11.31587 13891 ft 230 kts
2026-05-06 16:32 49.65292 11.32815 14071 ft 258 kts 53°
2026-05-06 16:32 49.65842 11.35447 14305 ft 267 kts 98°
2026-05-06 16:32 49.65145 11.38040 14584 ft 267 kts 139°
2026-05-06 16:32 49.63533 11.39421 14815 ft 271 kts 176°
2026-05-06 16:33 49.61742 11.38964 15145 ft 257 kts 212°
2026-05-06 16:33 49.60647 11.37059 15343 ft 231 kts 250°
2026-05-06 16:33 49.60708 11.34705 15361 ft 223 kts 292°
2026-05-06 16:34 49.63418 11.33172 14889 ft 237 kts 26°
2026-05-06 16:34 49.64556 11.34932 14632 ft 234 kts 75°
2026-05-06 16:34 49.64570 11.37302 14464 ft 217 kts 125°
2026-05-06 16:34 49.63550 11.38758 14391 ft 196 kts 174°
2026-05-06 16:35 49.62326 11.38422 14475 ft 181 kts 224°
2026-05-06 16:35 49.61847 11.36671 14756 ft 192 kts 274°
2026-05-06 16:35 49.62542 11.34877 15281 ft 210 kts 322°
2026-05-06 16:35 49.63992 11.34381 15796 ft 227 kts 11°
2026-05-06 16:36 49.65356 11.35607 16179 ft 234 kts 58°
2026-05-06 16:36 49.65817 11.37913 16585 ft 225 kts 106°
2026-05-06 16:36 49.65156 11.39901 17037 ft 204 kts 153°
2026-05-06 16:36 49.63875 11.40420 17466 ft 190 kts 199°
2026-05-06 16:37 49.62865 11.39238 17860 ft 192 kts 246°
2026-05-06 16:37 49.62826 11.37227 18247 ft 207 kts 290°
2026-05-06 16:37 49.63912 11.35597 18602 ft 230 kts 337°
2026-05-06 16:37 49.65520 11.35547 18901 ft 245 kts 22°
2026-05-06 16:38 49.66814 11.37191 19222 ft 245 kts 68°
2026-05-06 16:38 49.67089 11.39668 19565 ft 230 kts 113°
2026-05-06 16:38 49.66273 11.41603 19870 ft 212 kts 158°
2026-05-06 16:38 49.64931 11.41980 20170 ft 198 kts 202°
2026-05-06 16:39 49.63909 11.40662 20488 ft 200 kts 247°
2026-05-06 16:39 49.63893 11.38522 20818 ft 218 kts 290°
2026-05-06 16:39 49.64994 11.36798 21113 ft 241 kts 334°
2026-05-06 16:39 49.66689 11.36610 21394 ft 256 kts 18°
2026-05-06 16:40 49.68119 11.38123 21655 ft 258 kts 61°
2026-05-06 16:40 49.68630 11.40660 21940 ft 245 kts 104°
2026-05-06 16:40 49.68002 11.42936 22205 ft 225 kts 147°
2026-05-06 16:40 49.66701 11.43812 22430 ft 208 kts 189°
2026-05-06 16:41 49.65437 11.42954 22699 ft 204 kts 232°
2026-05-06 16:41 49.65016 11.40859 22969 ft 218 kts 275°
2026-05-06 16:41 49.65755 11.38742 23224 ft 242 kts 317°
2026-05-06 16:41 49.67369 11.37801 23432 ft 262 kts 359°
2026-05-06 16:42 49.69031 11.38556 23613 ft 270 kts 39°
2026-05-06 16:42 49.69478 11.39128 23674 ft 270 kts 52°